Tarboro, NC

7:45 AM EDT on September 26, 2017 (GMT -0400)
Tarboro-edgecombe

Weather History for KETC - September, 2013

Change the Weather History Date:

Friday, September 13, 2013

  Actual Average Record
Temperature  
Mean Temperature 76 °F -  
Max Temperature 90 °F 85 °F 99 °F (1983)
Min Temperature 63 °F 59 °F 48 °F (1976)
Cooling Degree Days 12    
Growing Degree Days 26 (Base 50)    
Moisture  
Dew Point 64 °F    
Average Humidity 69    
Maximum Humidity 94    
Minimum Humidity 40    
Precipitation  
Precipitation 0.00 in - - ()
Sea Level Pressure  
Sea Level Pressure 29.78 in    
Wind  
Wind Speed 2 mph (NNW)    
Max Wind Speed 9 mph    
Max Gust Speed 17 mph    
Visibility 9 miles    
Events      
Averages and records for this station are not official NWS values.
T = Trace of Precipitation, MM = Missing Value Source: NWS Daily Summary

Daily Weather History Graph

Daily Weather History Graph

Search for Another Location

Airport or City:

Trip Planner

Search our weather history database for the weather conditions in past years. The results will help you decide how hot, cold, wet, or windy it might be!

Date:

Astronomy

Sep. 13, 2013 Rise Set
Actual Time 6:51 AM EDT 7:20 PM EDT
Civil Twilight 6:25 AM EDT 7:45 PM EDT
Nautical Twilight 5:55 AM EDT 8:15 PM EDT
Astronomical Twilight 5:24 AM EDT 8:46 PM EDT
Moon 3:00 PM EDT (9/13) 12:27 AM EDT (9/13)
Length of Visible Light 13h 20m
Length of Day
12h 28m
First Quarter, 61% of the Moon is Illuminated
Sep 13
First Quarter
Sep 19
Full
Sep 26
Last Quarter
Oct 4
New
Oct 11
First Quarter

Hourly Weather History & Observations

Time (EDT) Temp. Heat Index Dew Point Humidity Pressure Visibility Wind Dir Wind Speed Gust Speed Precip Events Conditions
12:15 AM 74.5 °F - 68.4 °F 81% 29.79 in 10.0 mi SSW 3.5 mph - N/A   Scattered Clouds
12:35 AM 74.7 °F - 68.4 °F 81% 29.79 in 10.0 mi Calm Calm - N/A   Clear
12:55 AM 74.3 °F - 68.2 °F 81% 29.79 in 10.0 mi Calm Calm - N/A   Clear
1:15 AM 73.8 °F - 68.2 °F 83% 29.78 in 10.0 mi Calm Calm - N/A   Clear
1:35 AM 73.2 °F - 68.2 °F 84% 29.77 in 10.0 mi Calm Calm - N/A   Clear
1:55 AM 72.7 °F - 68.0 °F 85% 29.77 in 10.0 mi Calm Calm - N/A   Clear
2:15 AM 72.3 °F - 68.0 °F 86% 29.77 in 10.0 mi Calm Calm - N/A   Clear
2:35 AM 71.6 °F - 68.0 °F 88% 29.77 in 10.0 mi Calm Calm - N/A   Clear
2:55 AM 71.6 °F - 68.0 °F 88% 29.76 in 10.0 mi West 3.5 mph - N/A   Scattered Clouds
3:15 AM 72.0 °F - 68.4 °F 88% 29.75 in 10.0 mi Calm Calm - N/A   Scattered Clouds
3:35 AM 71.8 °F - 68.2 °F 88% 29.76 in 10.0 mi WSW 3.5 mph - N/A   Scattered Clouds
3:55 AM 71.6 °F - 68.2 °F 89% 29.75 in 10.0 mi Calm Calm - N/A   Scattered Clouds
4:15 AM 71.2 °F - 68.2 °F 90% 29.75 in 7.0 mi Calm Calm - N/A   Clear
4:35 AM 70.9 °F - 68.0 °F 91% 29.74 in 7.0 mi Calm Calm - N/A   Clear
4:55 AM 70.3 °F - 67.8 °F 92% 29.74 in 7.0 mi Calm Calm - N/A   Clear
5:15 AM 69.8 °F - 67.5 °F 92% 29.74 in 7.0 mi Calm Calm - N/A   Clear
5:35 AM 69.8 °F - 67.6 °F 93% 29.74 in 5.0 mi Calm Calm - N/A   Clear
5:55 AM 69.4 °F - 67.6 °F 94% 29.74 in 5.0 mi Calm Calm - N/A   Clear
6:15 AM 69.6 °F - 67.6 °F 93% 29.75 in 5.0 mi Calm Calm - N/A   Clear
6:35 AM 69.4 °F - 67.5 °F 93% 29.75 in 5.0 mi Calm Calm - N/A   Clear
6:55 AM 69.4 °F - 67.5 °F 93% 29.76 in 5.0 mi Calm Calm - N/A   Clear
7:15 AM 69.4 °F - 67.3 °F 93% 29.77 in 7.0 mi West 3.5 mph - N/A   Clear
7:35 AM 69.6 °F - 67.3 °F 92% 29.77 in 5.0 mi Calm Calm - N/A   Clear
7:55 AM 70.2 °F - 67.5 °F 91% 29.77 in 7.0 mi Calm Calm - N/A   Clear
8:15 AM 70.9 °F - 67.6 °F 89% 29.78 in 7.0 mi Calm Calm - N/A   Clear
8:35 AM 72.3 °F - 68.2 °F 87% 29.78 in 10.0 mi West 4.6 mph - N/A   Mostly Cloudy
8:55 AM 73.4 °F - 67.8 °F 83% 29.78 in 10.0 mi West 3.5 mph - N/A   Mostly Cloudy
9:15 AM 73.6 °F - 67.8 °F 82% 29.78 in 10.0 mi WNW 3.5 mph - N/A   Scattered Clouds
9:35 AM 74.1 °F - 67.6 °F 80% 29.79 in 10.0 mi West 3.5 mph - N/A   Scattered Clouds
9:55 AM 74.8 °F - 67.3 °F 77% 29.79 in 10.0 mi WNW 3.5 mph - N/A   Mostly Cloudy
10:15 AM 77.9 °F - 66.9 °F 69% 29.79 in 10.0 mi WNW 6.9 mph - N/A   Overcast
10:35 AM 78.4 °F - 65.7 °F 65% 29.79 in 10.0 mi WNW 8.1 mph - N/A   Mostly Cloudy
10:55 AM 80.4 °F 82.3 °F 65.5 °F 60% 29.79 in 10.0 mi NNW 4.6 mph - N/A   Clear
11:15 AM 81.9 °F 83.5 °F 64.8 °F 56% 29.78 in 10.0 mi NW 6.9 mph - N/A   Clear
11:35 AM 83.3 °F 84.4 °F 63.7 °F 51% 29.78 in 10.0 mi NW 9.2 mph - N/A   Clear
11:55 AM 84.4 °F 85.0 °F 62.1 °F 47% 29.78 in 10.0 mi NNW 9.2 mph 17.3 mph N/A   Clear
12:15 PM 85.1 °F 85.4 °F 61.7 °F 45% 29.78 in 10.0 mi NNW 6.9 mph 16.1 mph N/A   Clear
12:35 PM 85.1 °F 85.9 °F 62.6 °F 47% 29.77 in 10.0 mi NNW 5.8 mph - N/A   Clear
12:55 PM 85.5 °F 86.1 °F 62.8 °F 46% 29.77 in 10.0 mi NNW 4.6 mph - N/A   Scattered Clouds
1:15 PM 86.2 °F 86.8 °F 62.2 °F 45% 29.76 in 10.0 mi NW 8.1 mph - N/A   Scattered Clouds
1:35 PM 86.4 °F 86.5 °F 61.5 °F 43% 29.76 in 10.0 mi North 5.8 mph - N/A   Scattered Clouds
1:55 PM 86.5 °F 86.5 °F 61.2 °F 42% 29.76 in 10.0 mi NW 5.8 mph - N/A   Mostly Cloudy
2:15 PM 85.5 °F 85.4 °F 60.4 °F 43% 29.74 in 10.0 mi Calm Calm - N/A   Scattered Clouds
2:35 PM 87.3 °F 87.0 °F 60.4 °F 40% 29.74 in 10.0 mi NW 5.8 mph - N/A   Scattered Clouds
2:55 PM 85.5 °F 85.4 °F 60.8 °F 43% 29.74 in 10.0 mi Calm Calm - N/A   Scattered Clouds
3:15 PM 85.1 °F 85.2 °F 60.8 °F 44% 29.74 in 10.0 mi Calm Calm - N/A   Mostly Cloudy
3:35 PM 85.1 °F 85.2 °F 60.6 °F 44% 29.74 in 10.0 mi West 6.9 mph - N/A   Mostly Cloudy
3:55 PM 86.2 °F 85.6 °F 59.2 °F 40% 29.74 in 10.0 mi WNW 6.9 mph - N/A   Scattered Clouds
4:15 PM 86.2 °F 85.6 °F 59.5 °F 40% 29.74 in 10.0 mi NNW 9.2 mph - N/A   Scattered Clouds
4:35 PM 84.2 °F 84.4 °F 60.8 °F 45% 29.74 in 10.0 mi North 6.9 mph - N/A   Mostly Cloudy
4:55 PM 84.0 °F 84.4 °F 61.2 °F 46% 29.74 in 10.0 mi North 5.8 mph - N/A   Mostly Cloudy
5:15 PM 84.4 °F 84.6 °F 60.8 °F 45% 29.75 in 10.0 mi NNE 8.1 mph - N/A   Scattered Clouds
5:35 PM 82.4 °F 83.0 °F 61.5 °F 49% 29.75 in 10.0 mi NE 5.8 mph - N/A   Mostly Cloudy
5:55 PM 81.9 °F 82.6 °F 61.5 °F 50% 29.75 in 10.0 mi NNE 4.6 mph - N/A   Scattered Clouds
6:15 PM 80.1 °F 81.2 °F 61.9 °F 54% 29.76 in 10.0 mi NNE 3.5 mph - N/A   Scattered Clouds
6:35 PM 79.0 °F - 62.8 °F 57% 29.76 in 10.0 mi NNE 3.5 mph - N/A   Scattered Clouds
6:55 PM 78.3 °F - 62.4 °F 58% 29.77 in 10.0 mi Calm Calm - N/A   Overcast
7:15 PM 77.4 °F - 63.3 °F 62% 29.78 in 10.0 mi Calm Calm - N/A   Mostly Cloudy
7:35 PM 76.3 °F - 61.5 °F 60% 29.79 in 10.0 mi NNE 6.9 mph - N/A   Mostly Cloudy
7:55 PM 75.6 °F - 60.8 °F 60% 29.80 in 10.0 mi NNE 3.5 mph - N/A   Mostly Cloudy
8:15 PM 73.8 °F - 61.3 °F 65% 29.81 in 10.0 mi NNE 3.5 mph - N/A   Mostly Cloudy
8:35 PM 72.7 °F - 61.7 °F 68% 29.83 in 10.0 mi Calm Calm - N/A   Mostly Cloudy
8:55 PM 72.7 °F - 61.9 °F 69% 29.84 in 10.0 mi North 3.5 mph - N/A   Overcast
9:15 PM 72.7 °F - 61.7 °F 68% 29.85 in 10.0 mi NNE 3.5 mph - N/A   Overcast
9:35 PM 72.1 °F - 61.7 °F 70% 29.86 in 10.0 mi Calm Calm - N/A   Overcast
9:55 PM 71.6 °F - 62.2 °F 72% 29.86 in 10.0 mi North 3.5 mph - N/A   Mostly Cloudy
10:15 PM 71.1 °F - 61.9 °F 73% 29.87 in 10.0 mi NNE 4.6 mph - N/A   Mostly Cloudy
10:35 PM 71.4 °F - 60.6 °F 69% 29.87 in 10.0 mi North 3.5 mph - N/A   Overcast
10:55 PM 70.3 °F - 60.4 °F 71% 29.87 in 10.0 mi NNE 3.5 mph - N/A   Scattered Clouds
11:15 PM 68.4 °F - 60.3 °F 75% 29.87 in 10.0 mi Calm Calm - N/A   Clear
11:35 PM 66.6 °F - 59.9 °F 79% 29.87 in 10.0 mi Calm Calm - N/A   Clear
11:55 PM 63.9 °F - 60.1 °F 87% 29.87 in 10.0 mi Calm Calm - N/A   Clear